Location: Buckland
(65.9785°N, 161.1281°W)
Time: 15:30:09
(UTC+00:00)

Transit 4A - All Passes

Search period start: 26 November 2020 00:00
Search period end: 06 December 2020 00:00
Orbit: 862 x 982 km, 66.8° (Epoch: 25 November)

Date Brightness Start Highest point End Pass type
(mag) Time Alt. Az. Time Alt. Az. Time Alt. Az.
26 Nov - 00:44:07 10° WNW 00:50:36 88° NNE 00:57:01 10° ESE daylight
26 Nov - 02:30:37 10° WNW 02:36:57 61° SW 02:43:10 10° SE visible
26 Nov - 04:17:11 10° WNW 04:22:26 27° WSW 04:27:35 10° S visible
26 Nov - 17:54:04 10° ESE 17:56:28 12° E 17:58:52 10° ENE visible
26 Nov - 19:35:29 10° S 19:41:07 34° SE 19:46:48 10° ENE daylight
26 Nov - 21:20:29 10° SW 21:26:52 70° SSE 21:33:16 10° ENE daylight
26 Nov - 23:06:51 10° W 23:13:19 84° N 23:19:47 10° E daylight
27 Nov - 00:53:30 10° WNW 00:59:59 88° SSW 01:06:23 10° ESE daylight
27 Nov - 02:39:57 10° WNW 02:46:10 52° SW 02:52:15 10° SSE visible
27 Nov - 04:26:41 10° WNW 04:31:25 22° WSW 04:36:06 10° SSW visible
27 Nov - 18:01:41 10° SE 18:05:20 16° ESE 18:08:58 10° ENE visible
27 Nov - 19:44:20 10° SSW 19:50:14 41° SE 19:56:11 10° ENE daylight
27 Nov - 21:29:44 10° WSW 21:36:10 78° SSE 21:42:36 10° ENE daylight
27 Nov - 23:16:15 10° W 23:22:44 83° N 23:29:11 10° E daylight
28 Nov - 01:02:52 10° WNW 01:09:21 82° SSW 01:15:42 10° ESE daylight
28 Nov - 02:49:18 10° WNW 02:55:21 44° SW 03:01:17 10° SSE visible
28 Nov - 04:36:19 10° WNW 04:40:22 18° WSW 04:44:23 10° SSW visible
28 Nov - 18:09:49 10° SSE 18:14:15 20° ESE 18:18:43 10° ENE visible
28 Nov - 19:53:18 10° SSW 19:59:24 48° SE 20:05:32 10° ENE daylight
28 Nov - 21:39:03 10° WSW 21:45:31 85° SSE 21:51:58 10° ENE daylight
28 Nov - 23:25:39 10° W 23:32:09 83° N 23:38:34 10° E daylight
29 Nov - 01:12:13 10° WNW 01:18:39 74° SSW 01:24:59 10° SE daylight
29 Nov - 02:58:41 10° WNW 03:04:29 37° SW 03:10:11 10° S visible
29 Nov - 04:46:12 10° WNW 04:49:15 14° WSW 04:52:17 10° SW visible
29 Nov - 18:18:13 10° SSE 18:23:14 25° ESE 18:28:15 10° ENE visible
29 Nov - 20:02:22 10° SW 20:08:37 56° SE 20:14:53 10° ENE daylight
29 Nov - 21:48:24 10° WSW 21:54:52 90° NW 22:01:20 10° ENE daylight
29 Nov - 23:35:03 10° W 23:41:32 85° N 23:47:57 10° E daylight
30 Nov - 01:21:34 10° WNW 01:27:57 66° SW 01:34:13 10° SE daylight
30 Nov - 03:08:05 10° WNW 03:13:35 31° WSW 03:18:58 10° S visible
30 Nov - 04:56:57 10° W 04:58:05 10° W 04:59:13 10° WSW visible
30 Nov - 16:47:08 10° ESE 16:47:46 10° E 16:48:24 10° E visible
30 Nov - 18:26:50 10° S 18:32:15 30° ESE 18:37:43 10° ENE visible
30 Nov - 20:11:31 10° SW 20:17:51 65° SE 20:24:13 10° ENE daylight
30 Nov - 21:57:46 10° W 22:04:16 86° N 22:10:42 10° E daylight
30 Nov - 23:44:26 10° WNW 23:50:55 89° N 23:57:19 10° ESE daylight
01 Dec - 01:30:55 10° WNW 01:37:12 58° SW 01:43:22 10° SE daylight
01 Dec - 03:17:33 10° WNW 03:22:37 25° WSW 03:27:36 10° SSW visible
01 Dec - 16:53:40 10° SE 16:56:35 14° ESE 16:59:32 10° ENE visible
01 Dec - 18:35:35 10° S 18:41:20 36° SE 18:47:07 10° ENE visible
01 Dec - 20:20:45 10° SW 20:27:09 73° SSE 20:33:34 10° ENE daylight
01 Dec - 22:07:10 10° W 22:13:40 84° N 22:20:06 10° E daylight
01 Dec - 23:53:49 10° WNW 00:00:18 86° SSW 00:06:40 10° ESE daylight
02 Dec - 01:40:16 10° WNW 01:46:25 49° SW 01:52:27 10° SSE daylight
02 Dec - 03:27:05 10° WNW 03:31:35 21° WSW 03:36:02 10° SSW visible
02 Dec - 17:01:30 10° SE 17:05:28 17° ESE 17:09:27 10° ENE visible
02 Dec - 18:44:29 10° SSW 18:50:28 43° SE 18:56:29 10° ENE visible
02 Dec - 20:30:02 10° WSW 20:36:28 80° SSE 20:42:54 10° ENE daylight
02 Dec - 22:16:35 10° W 22:23:03 83° N 22:29:29 10° E daylight
03 Dec - 00:03:11 10° WNW 00:09:39 79° SSW 00:15:59 10° ESE daylight
03 Dec - 01:49:38 10° WNW 01:55:35 42° SW 02:01:25 10° SSE visible
03 Dec - 03:36:47 10° WNW 03:40:31 16° WSW 03:44:12 10° SW visible
03 Dec - 17:09:45 10° SSE 17:14:25 22° ESE 17:19:06 10° ENE visible
03 Dec - 18:53:29 10° SSW 18:59:39 51° SE 19:05:50 10° ENE visible
03 Dec - 20:39:21 10° WSW 20:45:50 87° SSE 20:52:16 10° ENE daylight
03 Dec - 22:25:59 10° W 22:32:28 84° N 22:38:52 10° E daylight
04 Dec - 00:12:32 10° WNW 00:18:57 71° SSW 00:25:15 10° SE daylight
04 Dec - 01:59:00 10° WNW 02:04:42 35° SW 02:10:17 10° S visible
04 Dec - 03:46:50 10° WNW 03:49:23 13° W 03:51:54 10° SW visible
04 Dec - 17:18:14 10° S 17:23:25 27° ESE 17:28:37 10° ENE visible
04 Dec - 19:02:35 10° SW 19:08:53 59° SE 19:15:11 10° ENE visible
04 Dec - 20:48:43 10° WSW 20:55:12 88° NNW 21:01:38 10° ENE daylight
04 Dec - 22:35:22 10° W 22:41:51 87° N 22:48:15 10° ESE daylight
05 Dec - 00:21:53 10° WNW 00:28:13 63° SW 00:34:27 10° SE daylight
05 Dec - 02:08:26 10° WNW 02:13:46 29° WSW 02:19:01 10° S visible
05 Dec - 15:46:00 10° ESE 15:47:53 11° E 15:49:45 10° E visible
05 Dec - 17:26:54 10° S 17:32:27 32° ESE 17:38:02 10° ENE visible
05 Dec - 19:11:46 10° SW 19:18:08 68° SSE 19:24:31 10° ENE visible
05 Dec - 20:58:06 10° W 21:04:35 85° N 21:11:01 10° E daylight
05 Dec - 22:44:45 10° WNW 22:51:14 89° SSW 22:57:36 10° ESE daylight
